Terminal Aerodrome Forecast
Issued by NWS Portland, ME

Home | Current Version | Previous Version | Text Only | Print | Product List | Glossary On
Versions: 1 2 3 4 5 6 7 8 9 10 11 12 13 14 15 16 17 18 19 20 21 22 23 24 25 26 27 28 29 30 31 32 33
000
FTUS41 KGYX 250027 AAA
TAFCON
TAF AMD
KCON 250027Z 2500/2524 35009KT 6SM -SHRA BR OVC015
     FM251000 31009KT P6SM OVC020 PROB30 2510/2511 2SM -FZRA OVC007
     FM251500 30011G19KT P6SM SCT020=

USA.gov is the U.S. government's official web portal to all federal, state and local government web resources and services.